User: anonymous   Login
Location: Sungai Anya
(2.6167°N, 114.0500°E)
Time: 16:06:35
(UTC+00:00)
Language:

Cosmos 304 Rocket - Orbit

View from above orbital plane
View from above orbital plane
View from above satellite
View from above satellite

Ground track
Ground track

The orbit data is extracted from the following two-line orbital elements,

1 04139U 69091B   22018.73423980  .00000219  00000-0  48507-4 0  9991
2 04139  74.0327 129.9308 0005060 165.6223 194.5089 14.63112277773939
Epoch (UTC): 18 January 2022 17:37:18
Eccentricity: 0.0005060
inclination: 74.0327°
perigee height: 679 km
apogee height: 687 km
right ascension of ascending node: 129.9308°
argument of perigee: 165.6223°
revolutions per day: 14.63112277
mean anomaly at epoch: 194.5089°
orbit number at epoch: 77393

The dashed part of the orbit path shows where the satellite is in the earth's shadow,  

DLR